TimePST,TemperatureF,Dew PointF,Humidity,Sea Level PressureIn,VisibilityMPH,Wind Direction,Wind SpeedMPH,Gust SpeedMPH,PrecipitationIn,Events,Conditions,WindDirDegrees,DateUTC
12:56 AM,39.0,37.0,93,30.16,10.0,ESE,5.8,-,N/A,,Mostly Cloudy,120,2013-01-24 08:56:00
1:56 AM,39.0,36.0,89,30.19,8.0,SE,4.6,-,N/A,,Mostly Cloudy,130,2013-01-24 09:56:00
2:56 AM,36.0,34.0,93,30.20,7.0,ESE,6.9,-,N/A,Fog,Patches of Fog,110,2013-01-24 10:56:00
3:56 AM,37.9,35.1,89,30.20,6.0,SE,6.9,-,N/A,,Mostly Cloudy,130,2013-01-24 11:56:00
4:56 AM,36.0,34.0,93,30.20,6.0,ESE,6.9,-,N/A,,Mostly Cloudy,110,2013-01-24 12:56:00
5:56 AM,39.0,37.0,93,30.22,7.0,East,5.8,-,N/A,,Mostly Cloudy,90,2013-01-24 13:56:00
6:56 AM,39.0,36.0,89,30.21,8.0,East,6.9,-,0.00,Rain,Light Rain,90,2013-01-24 14:56:00
7:28 AM,39.2,35.6,87,30.19,9.0,East,6.9,-,0.01,,Mostly Cloudy,90,2013-01-24 15:28:00
7:56 AM,39.0,36.0,89,30.20,10.0,East,6.9,-,0.01,,Overcast,100,2013-01-24 15:56:00
8:56 AM,39.9,37.0,89,30.18,10.0,SE,8.1,-,N/A,,Mostly Cloudy,130,2013-01-24 16:56:00
9:56 AM,42.1,39.0,89,30.18,10.0,ESE,12.7,19.6,N/A,,Overcast,120,2013-01-24 17:56:00
10:56 AM,43.0,39.0,86,30.17,10.0,ESE,10.4,-,N/A,,Overcast,120,2013-01-24 18:56:00
11:56 AM,44.1,37.9,79,30.15,10.0,East,11.5,-,N/A,,Overcast,100,2013-01-24 19:56:00
12:56 PM,44.1,37.9,79,30.12,10.0,ESE,9.2,-,N/A,,Overcast,120,2013-01-24 20:56:00
1:56 PM,44.1,37.0,76,30.09,10.0,ESE,10.4,-,N/A,,Overcast,110,2013-01-24 21:56:00
2:56 PM,44.1,35.1,71,30.09,10.0,SE,10.4,-,N/A,,Overcast,140,2013-01-24 22:56:00
3:56 PM,43.0,35.1,74,30.05,9.0,East,11.5,-,0.00,Rain,Light Rain,100,2013-01-24 23:56:00
4:56 PM,44.1,34.0,68,30.07,10.0,ESE,13.8,-,0.00,,Overcast,120,2013-01-25 00:56:00
5:20 PM,44.6,33.8,66,30.04,9.0,ESE,16.1,-,0.00,Rain,Light Rain,120,2013-01-25 01:20:00
5:56 PM,43.0,35.1,74,30.05,9.0,ESE,18.4,-,0.00,Rain,Light Rain,110,2013-01-25 01:56:00
6:56 PM,43.0,36.0,76,30.05,9.0,SE,19.6,29.9,0.00,Rain,Light Rain,130,2013-01-25 02:56:00
7:56 PM,43.0,37.9,82,30.04,10.0,ESE,19.6,31.1,0.00,,Overcast,120,2013-01-25 03:56:00
8:56 PM,44.1,37.9,79,30.03,10.0,ESE,17.3,29.9,N/A,,Overcast,120,2013-01-25 04:56:00
9:56 PM,44.1,37.9,79,30.02,10.0,SE,24.2,33.4,N/A,,Overcast,130,2013-01-25 05:56:00
10:56 PM,45.0,39.0,80,30.01,10.0,ESE,20.7,29.9,N/A,,Overcast,120,2013-01-25 06:56:00
11:56 PM,45.0,39.0,80,30.00,10.0,SE,21.9,29.9,N/A,,Overcast,140,2013-01-25 07:56:00